This is the latest recevied weather packets stored in our database for station/object SQ3VAS-10. If no packets are shown the sender has not sent any weather packets the latest 10 day(s).
| Time | Temp. | Humidity | Pressure | Rain* | Wind** | Luminosity | Snow |
|---|---|---|---|---|---|---|---|
| 1778168140 | 12.78° C | 64% | 1016.8 hPa | - | - | - | - |
| 1778167567 | 13.33° C | 63% | 1016.8 hPa | - | - | - | - |
| 1778166995 | 13.33° C | 64% | 1016.8 hPa | - | - | - | - |
| 1778166424 | 12.78° C | 64% | 1016.7 hPa | - | - | - | - |
| 1778165849 | 13.33° C | 63% | 1016.7 hPa | - | - | - | - |
| 1778165277 | 13.33° C | 61% | 1016.6 hPa | - | - | - | - |
| 1778164705 | 13.33° C | 61% | 1016.5 hPa | - | - | - | - |
| 1778164133 | 13.89° C | 61% | 1016.4 hPa | - | - | - | - |
| 1778163562 | 13.89° C | 59% | 1016.3 hPa | - | - | - | - |
| 1778162991 | 14.44° C | 59% | 1016.3 hPa | - | - | - | - |
| 1778162417 | 13.89° C | 60% | 1016.3 hPa | - | - | - | - |
| 1778161843 | 14.44° C | 58% | 1016.3 hPa | - | - | - | - |
| 1778161270 | 13.89° C | 61% | 1016.2 hPa | - | - | - | - |
| 1778160698 | 13.33° C | 60% | 1016.4 hPa | - | - | - | - |
| 1778160127 | 13.89° C | 59% | 1016.3 hPa | - | - | - | - |
| 1778159555 | 13.33° C | 61% | 1016.3 hPa | - | - | - | - |
| 1778158983 | 13.89° C | 58% | 1016.2 hPa | - | - | - | - |
| 1778158410 | 13.89° C | 61% | 1016.2 hPa | - | - | - | - |
| 1778157839 | 13.33° C | 62% | 1016.2 hPa | - | - | - | - |
| 1778157267 | 13.33° C | 61% | 1016.1 hPa | - | - | - | - |
| 1778156695 | 14.44° C | 61% | 1016 hPa | - | - | - | - |
| 1778156122 | 13.89° C | 61% | 1016 hPa | - | - | - | - |
| 1778155548 | 13.33° C | 62% | 1016 hPa | - | - | - | - |
| 1778154976 | 13.33° C | 63% | 1015.9 hPa | - | - | - | - |
| 1778154404 | 13.33° C | 64% | 1015.9 hPa | - | - | - | - |
* Rain since midnight (hover to see other rain measurements)
** Current wind speed in m/s (hover to see current wind gust speed)